Change the Weather History Date:

Thursday, November 17, 2011

  Actual Average Record
Temperature  
Mean Temperature 56 °F -  
Max Temperature 62 °F 64 °F 84 °F (2010)
Min Temperature 51 °F 44 °F 42 °F (2003)
Degree Days  
Heating Degree Days 8    
Growing Degree Days 6 (Base 50)    
Moisture  
Dew Point 45 °F    
Average Humidity 68    
Maximum Humidity 94    
Minimum Humidity 48    
Precipitation  
Precipitation 0.00 in 0.15 in - ()
Sea Level Pressure  
Sea Level Pressure 29.98 in    
Wind  
Wind Speed 5 mph ()    
Max Wind Speed 13 mph    
Max Gust Speed -    
Visibility 6.2 miles    
Events Rain    
Averages and records for this station are not official NWS values.
T = Trace of Precipitation, MM = Missing Value Source: Averaged Metar Reports

Daily Weather History Graph

Daily Weather History Graph

Search for Another Location

Airport or City:

Trip Planner

Search our weather history database for the weather conditions in past years. The results will help you decide how hot, cold, wet, or windy it might be!

Date:

Astronomy

Nov. 17, 2011 Rise Set
Actual Time 6:18 AM EET 4:28 PM EET
Civil Twilight 5:51 AM EET 4:55 PM EET
Nautical Twilight 5:19 AM EET 5:27 PM EET
Astronomical Twilight 4:48 AM EET 5:58 PM EET
Moon 10:22 PM EET (11/17) 11:18 AM EET (11/17)
Length of Visible Light 11h 04m
Length of Day
10h 09m
Waning Gibbous, 63% of the Moon is Illuminated
Nov 17
Waning Gibbous
Nov 18
Last Quarter
Nov 25
New
Dec 2
First Quarter
Dec 10
Full

Hourly Weather History & Observations

Time (EET) Temp. Dew Point Humidity Pressure Visibility Wind Dir Wind Speed Gust Speed Precip Events Conditions
12:20 AM 53.6 °F 50.0 °F 88% 29.98 in 6.2 mi North 4.6 mph - N/A   Mostly Cloudy
12:50 AM 53.6 °F 50.0 °F 88% 29.98 in 6.2 mi NNW 2.3 mph - N/A   Mostly Cloudy
1:20 AM 53.6 °F 48.2 °F 82% 29.98 in 6.2 mi North 3.5 mph - N/A   Mostly Cloudy
1:50 AM 51.8 °F 46.4 °F 82% 29.98 in 6.2 mi NE 4.6 mph - N/A   Mostly Cloudy
2:20 AM 51.8 °F 48.2 °F 88% 29.98 in 6.2 mi NE 4.6 mph - N/A   Mostly Cloudy
2:50 AM 51.8 °F 48.2 °F 88% 29.95 in 6.2 mi NE 5.8 mph - N/A   Mostly Cloudy
3:20 AM 53.6 °F 48.2 °F 82% 29.95 in 6.2 mi Variable 2.3 mph - N/A   Mostly Cloudy
3:50 AM 53.6 °F 46.4 °F 77% 29.95 in 6.2 mi North 4.6 mph - N/A   Mostly Cloudy
4:20 AM 53.6 °F 46.4 °F 77% 29.98 in 6.2 mi East 2.3 mph - N/A   Mostly Cloudy
4:50 AM 53.6 °F 46.4 °F 77% 29.98 in 6.2 mi Calm Calm - N/A   Mostly Cloudy
5:20 AM 53.6 °F 48.2 °F 82% 29.98 in 6.2 mi North 3.5 mph - N/A Rain Light Rain Showers
5:50 AM 53.6 °F 48.2 °F 82% 29.98 in 6.2 mi North 2.3 mph - N/A Rain Light Rain Showers
6:20 AM 51.8 °F 48.2 °F 88% 29.98 in 6.2 mi NW 3.5 mph - N/A Rain Light Rain Showers
6:50 AM 51.8 °F 48.2 °F 88% 29.98 in 6.2 mi Variable 2.3 mph - N/A   Mostly Cloudy
7:20 AM 51.8 °F 50.0 °F 94% 30.01 in 6.2 mi Variable 1.2 mph - N/A Rain Light Rain Showers
7:50 AM 53.6 °F 48.2 °F 82% 30.01 in 6.2 mi North 4.6 mph - N/A   Mostly Cloudy
8:20 AM 55.4 °F 48.2 °F 77% 30.01 in 6.2 mi NNE 5.8 mph - N/A   Mostly Cloudy
8:50 AM 55.4 °F 46.4 °F 72% 30.01 in 6.2 mi North 6.9 mph - N/A   Mostly Cloudy
9:20 AM 57.2 °F 46.4 °F 67% 30.01 in 6.2 mi NNE 6.9 mph - N/A   Mostly Cloudy
9:50 AM 57.2 °F 44.6 °F 63% 30.01 in 6.2 mi North 5.8 mph - N/A   Mostly Cloudy
10:20 AM 57.2 °F 46.4 °F 67% 30.01 in 6.2 mi North 4.6 mph - N/A   Mostly Cloudy
10:50 AM 59.0 °F 44.6 °F 59% 30.01 in 6.2 mi NE 10.4 mph - N/A Rain Light Rain Showers
11:20 AM 60.8 °F 42.8 °F 52% 30.01 in 6.2 mi NNE 10.4 mph - N/A   Mostly Cloudy
11:50 AM 60.8 °F 42.8 °F 52% 29.98 in 6.2 mi NNE 12.7 mph - N/A   Mostly Cloudy
12:20 PM 62.6 °F 42.8 °F 48% 29.98 in 6.2 mi NNE 10.4 mph - N/A   Mostly Cloudy
12:50 PM 60.8 °F 41.0 °F 48% 29.98 in 6.2 mi NNE 10.4 mph - N/A   Mostly Cloudy
1:20 PM 60.8 °F 41.0 °F 48% 29.98 in 6.2 mi North 10.4 mph - N/A   Mostly Cloudy
2:20 PM 60.8 °F 41.0 °F 48% 29.98 in 6.2 mi NNE 11.5 mph - N/A   Mostly Cloudy
2:50 PM 60.8 °F 41.0 °F 48% 29.98 in 6.2 mi NNE 10.4 mph - N/A   Mostly Cloudy
3:20 PM 60.8 °F 41.0 °F 48% 29.98 in 6.2 mi NNE 10.4 mph - N/A   Mostly Cloudy
3:50 PM 60.8 °F 41.0 °F 48% 29.98 in 6.2 mi NNE 6.9 mph - N/A   Mostly Cloudy
4:20 PM 59.0 °F 42.8 °F 55% 29.98 in 6.2 mi NE 6.9 mph - N/A   Mostly Cloudy
4:50 PM 57.2 °F 42.8 °F 59% 29.98 in 6.2 mi NE 5.8 mph - N/A   Mostly Cloudy
5:20 PM 57.2 °F 42.8 °F 59% 29.98 in 6.2 mi NNE 5.8 mph - N/A   Mostly Cloudy
5:50 PM 55.4 °F 42.8 °F 63% 29.98 in 6.2 mi NNE 5.8 mph - N/A   Mostly Cloudy
6:20 PM 57.2 °F 42.8 °F 59% 30.01 in 6.2 mi North 4.6 mph - N/A   Mostly Cloudy
6:50 PM 55.4 °F 42.8 °F 63% 29.98 in 6.2 mi NNE 4.6 mph - N/A   Mostly Cloudy
7:20 PM 55.4 °F 42.8 °F 63% 29.98 in 6.2 mi NNE 3.5 mph - N/A   Mostly Cloudy
7:50 PM 55.4 °F 44.6 °F 67% 29.98 in 6.2 mi NE 4.6 mph - N/A   Mostly Cloudy
8:20 PM 55.4 °F 44.6 °F 67% 29.98 in 6.2 mi NNE 4.6 mph - N/A   Mostly Cloudy
8:50 PM 55.4 °F 44.6 °F 67% 29.98 in 6.2 mi NNE 5.8 mph - N/A   Mostly Cloudy
9:20 PM 55.4 °F 44.6 °F 67% 29.98 in 6.2 mi North 4.6 mph - N/A   Mostly Cloudy
9:50 PM 57.2 °F 44.6 °F 63% 29.98 in 6.2 mi NNW 5.8 mph - N/A   Mostly Cloudy
10:20 PM 55.4 °F 44.6 °F 67% 29.98 in 6.2 mi Variable 2.3 mph - N/A   Mostly Cloudy
10:50 PM 55.4 °F 44.6 °F 67% 29.98 in 6.2 mi ENE 5.8 mph - N/A   Mostly Cloudy
11:20 PM 55.4 °F 44.6 °F 67% 29.98 in 6.2 mi NNE 3.5 mph - N/A   Mostly Cloudy
11:50 PM 55.4 °F 46.4 °F 72% 29.98 in 6.2 mi North 3.5 mph - N/A   Mostly Cloudy